Change the Weather History Date:

Sunday, August 17, 2014

  Actual Average (PAGA) Record (PAGA)
Temperature  
Mean Temperature 58 °F -  
Max Temperature 66 °F 61 °F 79 °F (2007)
Min Temperature 51 °F 48 °F 34 °F (1981)
Degree Days  
Heating Degree Days 6    
Growing Degree Days 8 (Base 50)    
Moisture  
Dew Point 51 °F    
Average Humidity 82    
Maximum Humidity 97    
Minimum Humidity 50    
Precipitation  
Precipitation 0.03 in - - ()
Sea Level Pressure  
Sea Level Pressure 29.59 in    
Wind  
Wind Speed 1 mph (WSW)    
Max Wind Speed 8 mph    
Max Gust Speed -    
Visibility 10 miles    
Events      
Averages and records for this station are not official NWS values.
T = Trace of Precipitation, MM = Missing Value Source: NWS Daily Summary

Daily Weather History Graph

Daily Weather History Graph

Search for Another Location

Airport or City:

Trip Planner

Search our weather history database for the weather conditions in past years. The results will help you decide how hot, cold, wet, or windy it might be!

Date:

Astronomy

Aug. 17, 2014 Rise Set
Actual Time 6:31 AM AKDT 10:43 PM AKDT
Civil Twilight 5:27 AM AKDT 11:46 PM AKDT
Nautical Twilight 3:16 AM AKDT 1:47 AM AKDT
Astronomical Twilight Sun does not rise Sun does not rise
Moon No Moon Rise 5:28 PM AKDT (8/17)
Length of Visible Light 18h 18m
Length of Day
16h 11m
Waning Gibbous, 47% of the Moon is Illuminated
Aug 17
Waning Gibbous
Aug 25
New
Sep 2
First Quarter
Sep 8
Full
Sep 15
Last Quarter

Hourly Weather History & Observations

Time (AKDT) Temp. Dew Point Humidity Pressure Visibility Wind Dir Wind Speed Gust Speed Precip Events Conditions
12:53 AM 54.0 °F 52.0 °F 93% 29.54 in 10.0 mi Calm Calm - 0.01 in   Overcast
1:53 AM 54.0 °F 52.0 °F 93% 29.55 in 10.0 mi Calm Calm - N/A   Overcast
2:53 AM 53.1 °F 52.0 °F 96% 29.55 in 10.0 mi Calm Calm - N/A   Overcast
3:53 AM 53.1 °F 51.1 °F 93% 29.55 in 10.0 mi Calm Calm - N/A   Overcast
4:53 AM 52.0 °F 51.1 °F 97% 29.56 in 10.0 mi Calm Calm - N/A   Overcast
5:53 AM 52.0 °F 50.0 °F 93% 29.57 in 10.0 mi Calm Calm - 0.01 in   Overcast
6:53 AM 51.1 °F 50.0 °F 96% 29.57 in 10.0 mi South 3.5 mph - N/A   Overcast
7:53 AM 52.0 °F 50.0 °F 93% 29.58 in 10.0 mi Calm Calm - N/A   Mostly Cloudy
8:53 AM 53.1 °F 51.1 °F 93% 29.58 in 10.0 mi Calm Calm - N/A   Mostly Cloudy
9:53 AM 55.9 °F 53.1 °F 90% 29.58 in 10.0 mi Calm Calm - N/A   Overcast
10:53 AM 57.0 °F 53.1 °F 87% 29.58 in 10.0 mi Calm Calm - N/A   Scattered Clouds
11:53 AM 60.1 °F 52.0 °F 75% 29.58 in 10.0 mi Calm Calm - N/A   Partly Cloudy
12:53 PM 61.0 °F 52.0 °F 72% 29.58 in 10.0 mi Variable 3.5 mph - N/A   Scattered Clouds
2:53 PM 66.0 °F 50.0 °F 56% 29.59 in 10.0 mi NW 8.1 mph - N/A   Partly Cloudy
3:53 PM 62.1 °F 53.1 °F 72% 29.59 in 10.0 mi NW 4.6 mph - N/A   Overcast
4:53 PM 61.0 °F 52.0 °F 72% 29.60 in 10.0 mi Calm Calm - N/A   Overcast
5:53 PM 66.0 °F 51.1 °F 59% 29.60 in 10.0 mi SW 3.5 mph - N/A   Clear
6:53 PM 66.0 °F 48.9 °F 54% 29.60 in 10.0 mi SW 5.8 mph - N/A   Mostly Cloudy
7:53 PM 66.0 °F 46.9 °F 50% 29.60 in 10.0 mi Calm Calm - N/A   Clear
8:53 PM 60.1 °F 51.1 °F 72% 29.62 in 10.0 mi Calm Calm - N/A   Clear
9:53 PM 57.0 °F 54.0 °F 89% 29.63 in 10.0 mi Calm Calm - 0.01 in   Mostly Cloudy
10:53 PM 55.0 °F 53.1 °F 93% 29.65 in 10.0 mi Calm Calm - N/A   Overcast
11:53 PM 54.0 °F 52.0 °F 93% 29.67 in 10.0 mi Calm Calm - N/A   Overcast